Location: Belleville-Villette
(48.8882°N, 2.3753°E)
Time: 11:03:54
(UTC+00:00)

Daily predictions for brighter satellites

Satellite Brightness Start Highest point End
(mag) Time Altitude Azimuth Time Altitude Azimuth Time Altitude Azimuth
BREEZE-M DEB (TANK) 3.3 19:11:20 10° WSW 19:14:45 73° SSE 19:25:42 10° ENE
CSL-04 Rocket 4.3 19:20:19 10° S 19:25:31 59° WSW 19:30:45 10° NNW
Ariane Rocket 3.3 19:20:43 10° SE 19:25:37 53° ENE 19:30:32 10° N
Cosmos 614 Rocket 4.2 19:21:38 10° S 19:26:32 47° ESE 19:31:26 10° NNE
COSMOS 2487 3.9 19:24:46 10° SW 19:28:01 42° WNW 19:31:18 10° N
Cosmos 2251 Rocket 3.6 19:22:57 10° S 19:28:15 67° ESE 19:33:34 10° NNE
FALCON 9 DEB 3.1 19:25:04 10° WSW 19:28:29 88° NNW 19:31:56 10° ENE
ATLAS 3B R/B 3.1 19:22:53 10° NW 19:29:51 69° SW 19:37:07 10° SSE
Cosmos 2279 Rocket 4.3 19:27:39 10° SSE 19:33:32 47° E 19:39:25 10° NNE
Cosmos 1980 3.8 19:32:17 10° NNW 19:37:59 70° ENE 19:43:39 10° SE
SL-16 R/B 3.3 19:33:22 10° NNW 19:38:22 30° NE 19:43:20 10° ESE
Cosmos 2026 Rocket 4.0 19:32:28 10° N 19:38:36 87° W 19:44:44 10° S
MOS 1 4.3 19:33:22 10° SSE 19:38:58 72° ENE 19:44:38 10° NNW
Cosmos-2242 4.4 19:36:31 10° SE 19:39:43 20° E 19:42:55 10° NE
USA 102 4.4 19:37:59 10° NNE 19:39:54 16° N 19:43:48 10° NNW
SME Rocket 3.7 19:36:09 10° N 19:40:02 66° WNW 19:45:07 10° SSW
Cosmos 2151 3.9 19:36:18 10° N 19:40:13 33° ENE 19:44:05 10° SE
USA 215 3.8 19:35:29 10° E 19:41:48 54° NNE 19:48:08 10° WNW
FALCON 9 DEB 4.2 19:41:30 10° SSW 19:43:54 21° SE 19:46:19 10° E
SPOT 3 Rocket 4.1 19:41:03 10° SE 19:45:56 43° ENE 19:50:49 10° N
Cosmos 1455 2.9 19:43:42 10° SSW 19:47:22 57° WNW 19:51:05 10° N
COSMOS 2455 4.0 19:44:13 10° SSE 19:48:23 20° ESE 19:52:34 10° ENE
SL-4 R/B 3.0 19:47:00 10° SSW 19:50:48 30° SE 19:54:50 10° E
ATLAS 5 CENTAUR R/B 4.4 19:47:51 10° WNW 19:50:55 18° NNW 19:54:18 10° NNE
IRS-1A Rocket 4.3 19:45:42 10° SSE 19:51:19 88° ENE 19:57:05 10° NNW
Cosmos 2219 Rocket 3.7 19:47:19 10° NW 19:52:27 35° WSW 19:57:33 10° S
USA 186 3.5 19:51:13 10° SSW 19:54:13 33° W 19:57:05 10° NNW
Cosmos 1076 Rocket 3.5 19:52:12 10° N 19:56:34 82° E 20:00:52 10° S
COSMOS 2428 4.0 19:51:28 10° NW 19:56:46 39° WSW 20:02:02 10° S
Cosmos 2266 Rocket 4.4 19:50:51 10° N 19:56:58 46° ENE 20:02:36 12° SE
IGS 5A 4.0 19:54:20 12° SE 19:57:52 42° ENE 20:01:49 10° N
ATLAS 5 CENTAUR R/B 3.1 19:57:12 10° W 19:58:28 15° SW 20:00:02 10° S
OBJECT-B 1.9 19:55:48 10° S 19:58:55 45° W 20:02:03 10° NNW
Landsat 7 4.3 19:55:13 12° SE 19:59:19 43° ENE 20:03:50 10° N
Cosmos 2292 Rocket 4.2 19:56:27 10° N 20:03:07 83° E 20:08:01 10° S
Cosmos 44 4.2 19:58:12 10° SW 20:03:19 58° NW 20:08:41 10° NE
Cosmos 1634 Rocket 4.3 19:57:22 10° SSW 20:03:37 71° W 20:09:52 10° N
Cosmos 1356 4.0 20:01:06 10° NNW 20:04:28 57° W 20:07:49 10° S
Cosmos 2344 3.6 19:58:05 10° SW 20:05:33 86° NW 20:13:40 10° NE
ARIANE 5 R/B 3.9 20:04:04 15° ESE 20:06:42 26° ENE 20:10:20 10° N
Cosmos 407 Rocket 3.5 20:02:04 10° S 20:07:05 57° ESE 20:12:10 10° NNE
USA 245 4.2 20:05:50 17° ESE 20:07:23 23° ENE 20:09:50 10° NNE
IRIDIUM 104 4.3 20:06:11 10° S 20:11:22 76° E 20:16:36 10° N
Orbus 7S? 3.8 20:08:38 10° WSW 20:11:35 65° NNW 20:17:20 10° NE
Cosmos 1023 Rocket 4.5 20:07:11 10° S 20:12:09 57° ESE 20:17:08 10° NNE
Meteor 2-3 Rocket 3.9 20:07:20 10° N 20:13:02 60° ENE 20:17:46 15° SSE
MetOp-B 4.3 20:09:16 14° SE 20:13:43 57° ENE 20:18:58 10° N
RESURS DK-1 4.3 20:10:42 10° WSW 20:14:29 34° NW 20:18:18 10° NNE
Cosmos 405 Rocket 3.8 20:12:46 10° NNW 20:16:35 45° W 20:20:19 10° SSW
Cosmos 44 Rocket 4.3 20:14:25 10° SSE 20:18:35 26° ESE 20:22:52 10° ENE
Cosmos 1140 Rocket 3.4 20:15:16 10° S 20:20:20 65° ESE 20:25:26 10° NNE
IRIDIUM 114 4.3 20:15:18 10° S 20:20:31 89° E 20:25:47 10° N
Cosmos 1812 Rocket 3.6 20:17:51 10° S 20:22:18 88° W 20:26:49 10° N
CZ-2C R/B 3.9 20:20:10 10° NNE 20:24:26 45° E 20:27:43 16° SSE
Cosmos 1954 Rocket 4.4 20:19:46 10° S 20:24:32 39° ESE 20:29:18 10° NE
Cosmos 2237 Rocket 2.6 20:20:13 10° NW 20:25:45 59° WSW 20:30:48 12° S
Timation 2 Rocket 4.0 20:20:48 10° SSW 20:27:15 63° ESE 20:33:28 10° NE
Meteor 2-21 4.5 20:21:58 10° N 20:28:03 85° W 20:34:06 10° S
Abrixas rocket 2.7 20:27:36 10° W 20:28:20 22° W 20:28:20 22° W
IRIDIUM 103 4.5 20:24:27 10° S 20:29:41 77° W 20:34:56 10° N
Cosmos 2180 Rocket 4.5 20:23:48 10° S 20:29:58 88° W 20:36:08 10° N
Cosmos 2263 Rocket 4.0 20:34:38 12° E 20:34:38 12° E 20:36:10 10° ENE
Cosmos 1766 Rocket 3.9 20:30:08 10° N 20:34:22 48° ENE 20:36:22 27° SE
BREEZE M DEB (TANK) 2.6 20:26:14 10° WSW 20:34:33 74° SSE 20:36:34 20° E
Spot 2 Rocket 3.8 20:32:07 23° SE 20:35:05 52° ENE 20:40:01 10° N
CARTOSAT-1 4.2 20:33:27 25° ESE 20:35:21 40° ENE 20:39:24 10° N
Cosmos 482 Debris 4.0 20:38:29 10° WNW 20:40:29 32° N 20:40:38 31° NNE
Cosmos 1633 3.3 20:37:11 10° NNW 20:40:41 50° W 20:43:20 16° SSW
FALCON 9 DEB 2.8 20:37:51 10° SW 20:40:51 58° SSE 20:41:37 41° E
Cosmos 2227 Rocket 2.1 20:36:20 10° SSW 20:41:59 78° ESE 20:47:40 10° NNE
Cosmos 2082 4.0 20:37:15 11° S 20:42:13 44° ESE 20:47:32 10° NE
Okean 3 Rocket 3.7 20:39:03 10° N 20:43:34 61° ENE 20:45:39 30° SSE
Cosmos 1655 Rocket 4.2 20:38:57 10° NNW 20:45:14 74° W 20:50:54 13° S
FALCON 9 DEB 2.6 20:42:27 10° WSW 20:45:28 74° SSE 20:46:28 38° ENE
Lacrosse 5 rocket 3.0 20:42:36 10° NW 20:46:23 31° NNE 20:49:59 12° ENE
Cosmos 2297 Rocket 2.3 20:43:00 10° SSW 20:48:40 77° WNW 20:54:22 10° NNE
Cosmos 1869 3.4 20:47:58 34° SSE 20:49:23 54° E 20:53:16 10° NNE
Cosmos 468 Rocket 4.3 20:44:25 10° NNW 20:49:28 53° ENE 20:51:46 30° ESE
Resurs 01 Rocket 2.4 20:46:09 14° S 20:49:51 49° W 20:54:12 10° NNW
Genesis I 4.2 20:46:57 10° NW 20:50:43 39° WSW 20:52:33 24° S
Meteor 1-4 Rocket 2.6 20:50:30 45° SE 20:51:01 50° E 20:54:28 10° NNE
ATLAS 2AS CENTAUR R/B 4.4 20:44:35 10° W 20:51:52 39° NNW 20:58:56 10° NE
FALCON 9 DEB 2.7 20:54:29 10° WSW 20:57:31 87° NNW 20:58:12 50° ENE
Cosmos 2219 3.4 20:52:20 10° SW 20:57:56 73° WNW 21:03:36 10° NNE
Cosmos 2084 Rocket 3.4 20:57:05 10° SW 21:01:03 77° NW 21:05:09 10° NE
Cosmos 1763 Rocket 3.5 20:57:18 10° NNW 21:02:21 64° ENE 21:04:17 37° SE
Cosmos 1190 Rocket 4.4 20:59:39 10° SSW 21:04:51 65° WNW 21:10:03 10° NNE
Terra 2.4 21:03:52 34° ESE 21:05:17 44° ENE 21:09:48 10° N
FALCON 9 DEB 4.3 21:02:22 10° WNW 21:05:39 41° N 21:07:41 20° ENE
Meteor 2-8 Rocket 4.4 21:02:57 19° S 21:07:27 78° E 21:13:35 10° NNE
BREEZE-M DEB (TANK) 3.3 21:07:25 10° W 21:08:45 25° WSW 21:08:45 25° WSW
Cosmos 540 Rocket 4.1 21:05:10 10° NNW 21:10:04 43° ENE 21:11:41 33° ESE
Cosmos 921 Rocket 4.2 21:07:39 10° N 21:11:30 28° ENE 21:12:21 26° E
SPOT 5 2.7 21:14:08 44° SE 21:15:33 73° ENE 21:20:25 10° N
NOSS 3-1 (C) 4.1 21:08:29 10° NW 21:15:49 78° NE 21:20:23 31° SE
Cosmos-2242 4.1 21:12:51 10° SSW 21:16:59 43° WNW 21:21:06 10° N
SPOT 1/Viking Rocket 4.0 21:14:17 25° S 21:17:17 57° W 21:22:27 10° NNW
Meteor 2-2 Rocket 4.4 21:15:41 37° SSE 21:17:37 53° E 21:23:09 10° NNE
FALCON 9 DEB 3.3 21:16:22 10° WSW 21:18:55 56° W 21:18:55 56° W
Cosmos 1842 Rocket 3.7 21:20:26 50° ESE 21:20:50 51° E 21:25:12 10° NNE
SL-16 R/B 2.6 21:17:16 10° NW 21:22:51 58° WSW 21:25:19 32° S
Cosmos 676 Rocket 4.1 21:18:04 10° SSW 21:23:15 73° WNW 21:28:27 10° NNE
USA 215 3.2 21:21:35 35° SE 21:24:40 78° SW 21:31:14 10° WNW
SL-08 ROCKET BODY 4.5 21:23:43 10° N 21:29:45 62° ENE 21:31:37 43° SE
SL-4 R/B 2.2 21:25:38 10° WSW 21:30:09 88° N 21:33:32 19° ENE
COSMOS 2455 2.8 21:27:33 10° SW 21:33:36 85° NW 21:39:40 10° NE
Cosmos 1408 Rocket 3.5 21:29:46 10° NNW 21:34:07 80° W 21:34:52 60° S
ERS-1 Rocket 3.0 21:33:52 44° S 21:35:27 74° WSW 21:40:30 10° NNW
ATLAS 5 CENTAUR R/B 4.5 21:34:14 10° NNW 21:37:27 17° NNE 21:41:00 10° NE
Cosmos 1862 3.2 21:37:24 10° NNW 21:41:23 80° W 21:41:30 78° SW
Sich 1 4.2 21:37:53 10° N 21:41:28 30° ENE 21:41:28 30° ENE
Cosmos 1805 Rocket 4.3 21:37:58 10° N 21:41:58 38° ENE 21:41:58 38° ENE
Cosmos 2221 2.3 21:41:54 77° SSE 21:42:10 84° E 21:46:29 10° N
ARIANE 5 R/B 3.6 21:41:36 31° SW 21:42:59 39° W 21:47:08 10° NNW
Meteor 2-15 Rocket 4.3 21:43:55 39° S 21:46:23 88° ESE 21:52:30 10° N
Cosmos 1943 3.3 21:43:13 10° NNW 21:48:49 64° ENE 21:50:06 50° ESE
Cosmos 1745 Rocket 4.0 21:45:34 10° N 21:51:52 65° ENE 21:53:25 49° SE
Cosmos 1570 Rocket 4.1 21:47:09 10° NNW 21:52:25 62° ENE 21:53:15 54° ESE
Cosmos 1743 Rocket 3.4 21:48:37 10° N 21:52:59 87° ENE 21:53:02 86° ESE
SeaSat 1 4.1 21:49:04 10° NE 21:51:18 20° ENE 21:51:18 20° ENE
NOSS 2-1 (C) 4.3 21:56:12 33° NNE 21:56:12 33° NNE 21:58:21 10° NE
Cosmos 1709 Rocket 4.5 21:51:02 10° N 21:56:57 43° ENE 21:58:10 39° ESE
Cosmos 44 Rocket 3.9 21:54:45 10° SW 21:59:47 60° NW 22:04:59 10° NE
NOSS 2-1 (D) 4.3 22:02:34 36° NNE 22:02:34 36° NNE 22:04:57 10° NE
TSX-5 4.5 22:01:04 28° SW 22:03:16 58° NW 22:07:05 10° NNE
Cosmos 1606 3.6 22:06:55 43° NNE 22:06:55 43° NNE 22:09:35 10° NNE
Cosmos 1741 Rocket 4.0 22:05:12 50° SW 22:06:35 81° WNW 22:11:55 10° NNE
S3M 4.0 22:05:25 54° SSE 22:06:47 69° E 22:13:09 10° NNE
BREEZE-M DEB (TANK) 3.7 21:59:51 10° WNW 22:06:19 45° WSW 22:06:19 45° WSW
Cosmos 1850 Rocket 4.1 22:08:06 47° SW 22:09:36 74° WNW 22:14:53 10° NNE
Cosmos 1500 Rocket 3.8 22:06:35 10° NNW 22:11:01 62° W 22:11:06 62° WSW
Cosmos 2263 Rocket 2.0 22:16:15 71° SSE 22:16:45 78° ESE 22:22:21 10° NNE
Aureole 1 Rocket 3.5 22:17:34 56° SW 22:18:41 77° WNW 22:23:11 10° NNE
H-2A R/B 4.2 22:16:40 10° N 22:20:44 48° WNW 22:21:10 46° W
Cosmos 1386 Rocket 4.3 22:15:12 10° N 22:21:16 82° W 22:22:22 61° S
USA 229 DEB 3.9 22:17:52 10° NW 22:25:08 70° SW 22:27:01 52° S
USA 229 3.9 22:17:58 10° NW 22:25:14 70° SW 22:27:07 52° S
Lacrosse 5 rocket 1.8 22:21:43 10° NW 22:25:34 65° NNW 22:25:34 65° NNW
Cosmos 2227 Rocket 4.4 22:22:07 10° W 22:26:41 24° NW 22:31:16 10° N
Cosmos 1844 Rocket 4.3 22:30:56 21° ENE 22:30:56 21° ENE 22:33:39 10° NE
Cosmos 2208 Rocket 3.9 22:27:14 10° NNW 22:32:36 79° WSW 22:32:47 78° SW
Cosmos 1151 Rocket 4.4 22:34:17 30° NE 22:34:17 30° NE 22:36:55 10° NNE
ALOS 2 3.6 22:35:37 37° NE 22:35:37 37° NE 22:39:12 10° N
Cosmos 1553 Rocket 4.4 22:33:03 38° SW 22:35:10 55° WNW 22:41:11 10° N
Cosmos 841 Rocket 4.1 22:31:15 10° NW 22:36:11 45° WSW 22:36:20 45° WSW
Cosmos 1603 3.9 22:31:57 10° NW 22:37:33 57° WSW 22:37:52 56° SW
NOSS 3-1 (A) 4.2 22:35:42 10° NW 22:43:06 63° SW 22:45:03 51° S
Terra 3.3 22:42:44 25° WSW 22:43:13 26° W 22:47:11 10° NW
Cosmos 1933 4.4 22:45:09 43° NNE 22:45:09 43° NNE 22:47:58 10° N
Cosmos 921 Rocket 4.3 22:45:49 10° NW 22:49:08 33° W 22:49:08 33° W
Meteor 2-17 Rocket 4.3 22:48:47 10° NNW 22:54:56 77° W 22:55:34 69° SSW
Cosmos 1437 Rocket 4.3 23:05:15 32° NNW 23:05:15 32° NNW 23:07:44 10° N
Meteor 1-14 Rocket 4.3 22:58:18 10° N 23:04:19 73° ENE 23:04:37 71° E
USA 215 4.5 23:08:55 25° WSW 23:08:55 25° WSW 23:13:39 10° WNW
SL-4 R/B 3.1 23:05:30 10° W 23:09:09 49° NW 23:09:09 49° NW
NOSS 2-2 (C) 4.3 23:08:41 10° NW 23:13:53 78° NE 23:14:35 69° ESE
Cosmos 2184 Rocket 4.1 23:08:07 10° N 23:14:24 61° ENE 23:14:58 59° ESE
NOSS 2-2 (E) 4.3 23:09:42 10° NW 23:15:06 89° ENE 23:15:39 76° SE
Cosmos 2315 Rocket 4.0 23:16:01 64° SW 23:16:50 72° W 23:23:14 10° N
ATLAS 5 CENTAUR R/B 3.5 23:18:41 10° NNW 23:23:32 35° NE 23:27:06 19° E
SeaSat 1 2.8 23:26:06 10° NNE 23:30:57 57° NW 23:31:05 57° WNW
Cosmos 1470 Rocket 4.5 23:29:02 10° NNW 23:32:15 46° NNW 23:32:15 46° NNW
Iridium 4 Rocket 3.9 23:38:02 56° WNW 23:38:02 56° WNW 23:43:04 10° N
Nimbus 7 Rocket 4.2 23:33:59 10° NNE 23:39:53 81° ESE 23:39:53 81° ESE
Cosmos 2074 Rocket 3.8 23:34:33 10° N 23:40:52 87° W 23:41:12 81° SSW
Cosmos 1844 3.9 23:41:40 62° E 23:41:40 62° E 23:46:47 10° NNE
COSMOS 2406 4.5 23:37:43 10° NNW 23:42:54 34° NE 23:44:55 27° E
Cosmos 1503 Rocket 4.4 23:44:44 56° NE 23:44:44 56° NE 23:48:59 10° NNE
USA 281 3.5 23:43:08 47° ESE 23:44:50 62° ENE 23:51:19 10° NNW
Cosmos 1812 4.5 23:48:00 32° N 23:48:00 32° N 23:50:10 10° N
